Volver al catálogo

STARLINK-36109

ActivoComunicacionesVLEO
NORAD 66943·PAYLOAD·🇺🇸 United States

Lanzado Dec 7, 2025 desde Vandenberg Space Force Base

Loading…

Próximos Pases (próximas 24 horas)

TLE

ActualizadoSource: CelesTrak SupGP

Época: Sep 15, 2026, 02:32 UTC

1 66943C 25286U   26258.10604167 -.00083775  00000+0 -24751-2 0  2589
2 66943  53.1572 194.7559 0001267  93.8651 203.7588 15.34433269    15

Sigue STARLINK-36109 en tiempo real con AllMySat

Download on the App Store